FOLSOM LAKE (FOL)

Elevation: 466' · AMERICAN R basin · Operator: US Bureau of Reclamation

Provisional data, subject to change.
Query executed Monday at 16:34:59   clock

Select a sensor type for a plot of data.
Note: Reservoir Flows are daily averages.

Earlier

Date RES ELE    STORAGE    RES CHG    TOC STO    ABV TOC    OUTFLOW    INFLOW    EVAP    FNF    RIV REL    PPT INC    SPILL    DC PUMP    DIS PWR   
 FEET   AF   AF   AF   AF   CFS   CFS   CFS   CFS   CFS   INCHES   CFS   CFS   CFS  
07/31/2016 414.57 484623 -6879 977000 -492377 5128 1760 100 254 e 0 0.00 0 235 4893
08/01/2016 413.56 476798 -7825 977000 -500202 5384 1522 83 132 e 0 0.00 0 224 5160
08/02/2016 412.56 469125 -7673 977000 -507875 5361 1567 74 132 e 0 0.00 0 215 5146
08/03/2016 411.72 462736 -6389 977000 -514264 4736 1607 92 132 e 0 0.00 0 218 4518
08/04/2016 410.75 455426 -7310 977000 -521574 5190 1596 91 132 e 0 0.00 0 211 4979
08/05/2016 409.85 448704 -6722 977000 -528296 4781 1454 62 117 e 0 0.00 0 217 4564
08/06/2016 408.85 441313 -7391 977000 -535687 5210 1484 0 117 e 0 0.00 0 226 4984
08/07/2016 407.97 434872 -6441 977000 -542128 4702 1521 66 117 e 0 0.00 0 228 4474
08/08/2016 407.02 427992 -6880 977000 -549008 4818 1424 75 117 e 0 0.00 0 214 4604
08/09/2016 406.05 421043 -6949 977000 -555957 4912 1476 67 109 e 0 0.00 0 210 4702
08/10/2016 405.14 414596 -6447 977000 -562404 4541 1353 62 109 e 0 0.00 0 214 4327
08/11/2016 404.23 408215 -6381 977000 -568785 4629 1480 68 109 e 0 0.00 0 213 4416
08/12/2016 403.30 401762 -6453 977000 -575238 4728 1545 70 109 e 0 0.00 0 218 4510
08/13/2016 402.58 396814 -4948 977000 -580186 4095 1676 76 101 e 0 0.00 0 224 3871
08/14/2016 401.87 391968 -4846 977000 -585032 4165 1798 76 101 e 0 0.00 0 230 3935
08/15/2016 400.82 384886 -7082 977000 -592114 5074 1579 75 101 e 0 0.00 0 223 4851
08/16/2016 399.93 378948 -5938 977000 -598052 4530 1603 67 101 e 0 0.00 0 211 4319
08/17/2016 399.16 373864 -5084 977000 -603136 4085 1595 73 101 e 0 0.00 0 210 3875
08/18/2016 398.78 371371 -2493 977000 -605629 2921 1737 73 49 e 0 0.00 0 218 2703
08/19/2016 398.28 368105 -3266 977000 -608895 3168 1598 77 49 e 0 0.00 0 218 2950
08/20/2016 397.88 365501 -2604 977000 -611499 2901 1656 68 49 e 0 0.00 0 214 2687
08/21/2016 397.50 363046 -2455 977000 -613954 2606 1438 70 48 e 0 0.00 0 208 2398
08/22/2016 397.16 360850 -2196 977000 -616150 2313 1265 59 48 e 0 0.00 0 200 2113
08/23/2016 396.93 359369 -1481 977000 -617631 2110 1430 67 48 e 0 0.00 0 196 1914
08/24/2016 396.65 357580 -1789 977000 -619420 2293 1443 52 48 e 0 0.00 0 197 2096
08/25/2016 396.30 355343 -2237 977000 -621657 2598 1530 60 48 e 0 0.00 0 193 2405
08/26/2016 396.02 353554 -1789 977000 -623446 2075 1224 51 -- 0 0.00 0 211 1864
08/27/2016 395.78 352036 -1518 977000 -624964 2060 1340 45 -- 0 0.00 0 226 1834
08/28/2016 395.46 350014 -2022 977000 -626986 2130 1158 47 -- 0 0.00 0 217 1913
08/29/2016 -- -- -- -- -- -- -- -- -- -- -- -- -- --

Later | Latest

Warning! This data is preliminary and subject to revision.

Show FOL Map | Plot FOL Data | 1 Month FOL Data | Real-Time FOL Data | FOL Info